Terug naar catalogus

STARLINK-6255

ActiefCommunicatieVLEO
NORAD 56550·PAYLOAD·🇺🇸 United States

Gelanceerd May 14, 2023 vanaf Cape Canaveral Space Force Station

Loading…

Volgende Passages (komende 24 uur)

TLE

VersSource: CelesTrak SupGP

Epoch: Sep 15, 2026, 03:02 UTC

1 56550C 23065AZ  26258.12687500 -.00021356  00000+0 -77341-3 0  2580
2 56550  42.9997 234.0378 0001497 264.0154 350.2907 15.27592852    16

Volg STARLINK-6255 in realtime met AllMySat

Download on the App Store